Дата Пункты Температура Давл., мм. Влажн., % Ветер Погодные явления
Воздуха Воды Направл. Скорость
27.11.17 08:00 Одесса 6.0 -20.0 759 91 В 11 20 часов
27.11.17 05:00 Одесса 6.0 7.0 759 92 В 14 17 часов
27.11.17 02:00 Одесса 6.0 7.0 759 94 В 12 14 часов
27.11.17 11:00 Одесса 7.0 7.0 760 95 Ю-В 11 11 часов
27.11.17 08:00 Одесса 7.0 7.0 760 95 Ю-В 11 08 часов
27.11.17 05:00 Одесса 7.0 7.0 759 94 В 13 05 часов
27.11.17 02:00 Одесса 7.0 7.0 760 91 В 11 02 часа
26.11.17 11:00 Одесса 7.0 7.0 760 89 Ю-В 8 23 часа
26.11.17 08:00 Одесса 7.0 7.0 761 87 Ю-В 8 20 часов
26.11.17 05:00 Одесса 8.0 7.0 761 89 Ю-В 6 17 часов
26.11.17 02:00 Одесса 8.0 7.0 761 87 Ю-В 5 14 часов
26.11.17 11:00 Одесса 10.0 8.0 762 85 Ю 6 11 часов
26.11.17 08:00 Одесса 9.0 8.0 762 80 Ю 5 08 часов
26.11.17 05:00 Одесса 9.0 8.0 762 77 Ю 6 05 часов
26.11.17 02:00 Одесса 9.0 8.0 763 78 Ю 6 02 часа
25.11.17 11:00 Одесса 9.0 8.0 763 81 Ю 5 23 часа
25.11.17 08:00 Одесса 9.0 8.0 763 81 Ю 6 20 часов
25.11.17 05:00 Одесса 9.0 8.0 764 81 Ю 4 17 часов
25.11.17 02:00 Одесса 9.0 8.0 764 74 Ю 3 14 часов
25.11.17 11:00 Одесса 8.0 8.0 765 69 Ю 5 11 часов
Количество строк
1 2 3 4 5 6 7 8 9 10
Page 7 of 305